Location: Olda
(45.8833°N, 9.5500°E)
Time: 07:43:58
(UTC+00:00)

Okean-O - Pass Details

Date: 03 March 2021
Orbit: 638 x 640 km, 98.2° (Epoch: 11 April)

Event Time Altitude Azimuth Distance (km) Brightness Sun altitude
Rises 18:21:10 0° 175° (S) 2,932 5.9 -12.9°
Reaches altitude 10° 18:23:23 10° 179° (S) 2,028 5.2 -13.3°
Maximum altitude 18:27:45 58° 259° (W) 749 3.3 -14.1°
Drops below altitude 10° 18:32:08 10° 339° (NNW) 2,043 5.6 -14.8°
Sets 18:34:23 0° 343° (NNW) 2,957 6.4 -15.2°
